FLAMINGO-1

导读 | 豆包AI

FLAMINGO-1卫星目前公开信息有限,发射国家暂未明确标注,按计划于2026年1月11日发射。目前暂未检索到该卫星具体任务定位、技术参数等官方披露细节,作为待发射航天器,其后续的发射执行情况、入轨后的工作任务及应用方向,还有待相关航天机构进一步公布详细信息,值得持续关注。

Basic Information
目录编号:
67391
目录名称:
FLAMINGO-1
国际标识:
2026-004AE
轨道中心:
EARTH
卫星名称:
FLAMINGO-1
卫星全名:
FLAMINGO-1
卫星状态:
在轨 (已飞行135 天)
发射日期:
2026-01-11 UTC
国别 :
德国 (DE)
星等 :
--
Orbit Information
数据来源 国际轨道数据 AOE轨道数据
星历时间 2026-05-26T14:23:18+0800
12小时前
查看轨道信息
2026-05-22T07:00:00+0800
4天前
查看轨道信息
半长轴 6890.855km 6890.884km
偏心率 0.0006373 0.0006752
轨道倾角 97.455° 97.457°
近地点辐角 55.487° 67.667°
升交点赤经 145.515° 141.272°
平近点角 304.696° 170.415°
近地点 508.326km 508.094km
远地点 517.11km 517.4km
周期 94.879分钟 94.879分钟
每日圈数 15.177253 15.177156
Detailed Information
使用方式:
暂无
2D Orbit Map
3D Orbit Map
Orbit Altitude Analysis Chart
Orbit Inclination Analysis Chart
Orbit Comprehensive Analysis Chart
View Comprehensive Chart